Theta_e
322 324 327 336 336 316 317 319 317 319 319 319 319 316 317 317 319 318 322 321 322 323 326 327 326 328 325 322 322 322 322 321 321 323 325 327 327 328 330 330 330 330 331 333 333 335 337 335 337
323 328 331 331 333 316 314 317 317 317 318 317 316 316 319 320 319 320 320 319 319 321 326 328 327 325 324 324 323 322 323 323 323 324 326 327 327 328 328 328 330 331 331 332 332 334 336 337 332
327 333 334 333 323 316 314 315 316 316 317 316 317 317 320 322 321 319 318 318 315 316 322 325 327 324 324 324 323 322 324 321 324 325 325 324 326 326 327 328 328 330 331 331 332 334 335 336 333
333 332 329 328 316 315 315 314 315 316 317 316 316 321 321 320 320 319 317 315 315 315 316 319 321 323 324 323 322 320 322 324 324 325 325 325 324 325 326 327 327 328 330 331 332 334 336 336 331
332 325 329 325 317 315 315 316 314 316 316 316 317 322 322 319 319 318 316 316 315 315 319 320 316 319 322 322 323 325 324 324 325 325 325 324 324 324 325 326 327 327 331 331 332 334 335 334 333
327 324 326 326 318 317 317 316 316 316 315 315 320 320 320 319 319 318 317 317 318 318 315 314 318 319 315 314 318 320 322 325 325 324 324 324 323 324 324 325 327 327 330 332 332 333 334 333 330
329 329 331 322 317 318 317 316 317 316 317 317 315 320 318 317 317 316 316 315 314 313 313 314 315 316 317 318 321 322 319 322 324 324 325 324 323 323 323 325 327 328 330 332 332 333 333 331 331
328 323 320 317 317 318 317 316 315 316 318 318 318 319 317 316 316 316 315 314 315 315 316 318 318 318 318 318 319 319 319 322 322 322 322 322 322 322 323 325 327 329 331 332 332 334 333 331 330
322 322 319 319 318 318 315 316 317 317 318 319 318 317 315 315 316 316 315 315 316 318 321 321 320 319 318 319 320 318 318 319 319 319 318 321 321 320 321 324 326 329 331 332 333 333 331 331 331
321 318 320 318 316 315 315 316 317 318 319 319 319 315 316 316 316 315 314 315 317 321 322 322 319 319 319 321 320 319 320 319 319 315 315 316 316 318 321 323 326 328 329 331 332 331 332 334 331
324 321 318 318 316 314 316 317 317 319 319 318 318 315 314 314 315 315 316 318 319 321 323 321 320 320 320 321 320 320 320 320 319 319 320 321 319 319 322 323 326 328 329 330 330 331 332 333 332
323 319 318 318 317 317 317 316 318 319 318 317 317 314 314 313 313 315 317 320 322 322 321 320 320 320 320 321 319 320 321 320 321 319 321 322 322 321 322 324 325 327 328 327 327 328 332 332 332
319 319 318 317 315 317 316 317 318 317 317 317 315 314 313 313 314 317 319 321 323 321 320 320 322 322 321 321 321 321 321 322 321 320 322 322 323 323 324 325 326 326 326 328 327 330 332 333 334
319 319 317 316 316 316 316 317 317 318 318 317 315 313 313 313 314 317 319 322 323 322 320 321 322 323 322 320 322 323 323 322 322 321 321 321 322 323 325 325 325 327 327 328 329 332 333 334 333
319 319 318 316 316 317 315 317 316 318 317 318 315 313 314 314 315 317 320 324 322 321 320 319 322 323 323 322 324 324 323 323 323 323 321 321 324 325 326 325 325 325 326 329 330 331 332 332 332
321 317 318 316 316 317 315 315 317 317 317 317 315 314 314 314 316 318 321 323 322 322 320 319 323 323 323 322 324 324 323 323 323 324 325 325 325 325 326 326 326 326 327 330 330 330 330 331 330
319 318 317 318 316 317 315 315 319 316 317 318 315 314 314 314 315 318 321 324 323 322 320 320 322 324 323 323 324 325 324 325 325 324 324 326 326 327 326 326 327 323 329 331 331 331 330 330 329
321 318 318 319 317 318 315 314 317 317 318 319 314 314 315 315 315 319 321 324 324 323 320 321 322 324 325 325 324 325 326 326 326 326 326 326 325 324 324 326 325 328 329 329 329 330 330 330 329
321 321 320 320 318 318 316 315 316 316 319 317 314 314 314 314 315 319 320 325 324 325 320 320 320 325 325 325 326 326 326 326 326 326 326 326 326 324 326 324 325 328 328 328 329 329 330 330 329
321 321 321 319 318 316 316 317 317 318 319 318 315 314 314 313 314 317 320 321 324 323 324 320 321 324 324 325 325 326 327 327 327 327 327 326 325 328 329 327 328 328 328 326 328 329 329 329 329
319 320 321 320 319 318 318 318 320 319 320 321 315 314 313 313 314 316 319 319 324 322 320 321 320 319 322 325 326 327 327 327 327 327 328 328 322 326 327 328 326 327 328 328 328 328 328 328 328
318 319 321 322 320 319 319 319 319 320 320 321 317 314 313 313 314 316 318 319 322 325 323 320 320 318 315 318 326 326 326 327 327 327 328 329 327 326 328 328 328 326 325 327 328 328 328 327 328
318 318 318 321 319 318 320 320 321 320 323 325 318 315 313 313 314 317 318 319 321 326 325 322 320 318 322 322 323 326 326 327 327 328 329 330 328 327 330 330 328 330 329 327 327 328 328 328 328
318 320 321 319 318 321 319 320 320 321 322 324 319 316 314 314 313 316 320 321 321 324 325 321 322 325 325 320 323 325 326 326 323 323 324 326 329 330 330 330 328 329 330 330 329 329 328 329 328
320 319 321 322 321 323 321 322 322 321 320 324 320 316 315 315 313 316 317 319 321 322 326 324 324 323 324 319 319 320 324 324 321 322 323 325 327 330 330 331 331 330 331 331 330 331 330 329 329
317 319 322 324 324 324 329 328 323 328 321 323 321 317 315 313 315 316 317 319 322 322 324 326 324 322 323 320 320 319 319 322 321 320 321 322 322 324 328 330 329 329 331 331 330 330 329 329 331
318 321 318 320 324 324 330 332 330 329 325 324 320 316 315 314 316 315 316 319 320 323 322 325 324 321 321 321 320 320 321 320 320 320 319 320 320 321 325 327 327 324 325 327 330 330 331 330 329
317 319 323 319 324 326 326 337 334 331 328 324 319 317 315 314 316 314 316 319 320 323 322 324 321 318 317 316 319 319 320 320 321 319 319 320 321 319 320 321 321 324 322 320 322 328 329 329 329
328 330 330 327 324 325 325 335 333 332 328 324 320 317 315 315 316 315 317 319 320 321 323 323 321 320 319 318 316 317 317 319 320 320 318 320 323 324 320 324 323 323 321 321 322 324 322 322 320
331 334 334 335 333 328 332 332 332 330 326 324 320 318 315 316 315 316 317 319 321 322 322 322 322 321 321 320 319 320 318 316 318 319 319 320 322 323 321 324 321 321 321 321 322 323 323 323 323
Wind_Speed
5 4 3 3 4 5 1 1 4 2 1 2 2 6 6 2 2 4 6 6 5 2 9 14 11 10 9 7 8 11 10 9 7 7 8 7 7 7 6 9 11 11 11 10 10 9 8 7 8
6 5 3 2 3 3 4 3 7 6 5 2 9 6 3 1 4 5 2 6 5 2 7 11 12 11 9 10 10 10 9 8 8 8 8 6 7 9 10 9 11 13 13 12 12 11 10 9 9
5 4 3 3 2 5 5 5 6 5 5 4 2 2 5 2 4 4 4 5 9 5 4 8 11 11 10 9 10 11 11 12 10 10 9 9 7 7 9 12 12 13 14 14 14 13 11 11 10
5 3 3 3 4 3 7 7 8 6 2 2 5 6 4 3 3 4 4 3 2 8 9 8 8 8 9 10 12 13 13 13 13 12 12 12 11 11 11 13 16 14 16 16 16 15 13 12 11
3 3 1 3 5 4 4 5 10 7 7 4 6 3 3 1 6 4 4 4 8 4 4 1 7 9 9 10 11 13 14 16 15 14 13 13 13 14 15 14 17 17 17 18 17 16 15 14 12
3 3 2 3 3 3 3 5 7 6 5 5 6 5 3 7 9 5 5 6 7 7 2 2 2 1 7 14 15 16 18 18 17 17 16 15 16 15 17 16 17 18 18 19 19 18 17 16 13
6 3 5 7 8 2 5 2 4 5 4 2 8 5 4 2 6 9 13 12 9 7 6 6 11 10 9 11 14 13 14 15 15 15 17 17 16 17 17 17 17 18 19 19 19 19 19 18 15
5 4 5 5 4 3 3 3 6 9 2 3 5 5 4 3 11 13 13 13 12 11 11 10 7 12 13 11 8 8 8 9 12 16 18 18 19 17 18 17 17 16 19 20 20 19 19 19 15
4 1 3 3 5 4 4 4 0 1 7 3 3 4 11 11 13 14 13 13 14 12 14 9 9 12 12 16 14 12 10 12 15 17 15 15 17 19 19 18 15 14 18 19 19 18 18 18 15
4 2 7 5 7 7 7 7 6 4 6 5 6 9 14 15 15 15 13 12 15 13 16 7 10 13 17 13 12 11 9 8 10 6 6 11 14 14 13 16 13 14 16 17 18 17 19 15 15
4 6 5 5 6 9 7 5 5 9 3 3 6 7 5 14 14 14 12 13 14 13 11 10 13 16 13 13 13 8 6 7 7 4 3 5 8 12 12 12 12 11 15 16 17 16 16 15 16
8 6 6 4 5 5 5 6 4 3 6 9 7 9 7 9 10 11 10 11 14 12 8 10 12 13 13 12 11 8 7 7 6 1 1 3 5 7 9 11 12 12 13 15 18 18 18 16 27
5 5 6 6 8 5 7 3 6 7 9 8 10 9 9 8 11 11 10 9 12 10 10 7 12 13 10 10 9 10 10 7 5 2 4 3 3 1 6 8 13 13 12 15 16 17 20 24 34
5 7 9 5 6 6 5 3 6 5 9 8 9 9 8 9 9 9 7 9 9 10 11 8 9 14 12 8 9 10 9 7 5 2 2 1 1 4 4 4 9 12 14 15 19 24 27 33 35
6 5 3 6 7 5 5 0 5 9 9 9 9 8 8 8 11 8 5 7 8 10 9 10 6 11 13 9 10 11 9 6 4 4 4 2 2 2 4 4 7 8 13 20 24 32 35 35 37
4 5 3 5 7 2 8 8 7 10 10 9 10 8 8 6 10 7 6 6 7 11 10 10 8 7 11 9 10 11 9 9 7 6 5 4 4 5 1 4 7 9 21 27 29 32 32 34 36
4 4 6 4 8 6 4 7 5 10 9 9 9 8 8 6 6 7 6 6 6 11 10 11 11 8 13 9 8 11 9 8 7 5 4 3 4 5 8 11 15 11 28 29 34 33 33 31 31
5 5 4 6 6 6 6 8 8 10 10 10 10 8 8 7 6 8 8 7 5 7 9 10 13 10 9 11 9 11 11 10 9 8 9 8 9 13 3 20 21 29 29 27 31 34 30 30 33
6 6 9 4 6 7 10 7 13 11 7 10 8 9 8 8 9 9 9 9 6 4 8 11 10 10 9 8 8 12 11 12 12 12 11 11 15 8 17 25 22 24 30 27 32 31 30 30 34
7 9 12 6 8 8 8 12 9 11 12 14 12 9 10 6 6 8 11 8 6 6 5 9 11 10 12 10 6 6 9 10 10 12 14 17 19 19 20 27 27 24 27 26 28 28 25 28 26
7 8 11 6 1 6 4 6 5 7 2 9 8 9 8 11 9 7 11 8 6 10 10 7 8 9 10 14 10 9 8 9 12 18 16 18 16 20 17 28 25 29 29 26 27 26 23 19 19
9 8 14 6 7 6 4 4 5 6 8 11 11 10 10 9 7 7 11 9 8 10 12 10 10 7 9 8 13 15 15 14 13 20 17 19 14 15 14 16 21 24 25 23 25 29 29 30 17
10 7 8 6 7 4 3 3 6 7 5 9 11 12 10 10 10 10 13 14 10 12 12 11 9 9 11 11 11 17 17 17 23 21 20 19 21 14 11 17 20 18 23 24 24 28 26 27 20
8 4 5 5 3 0 7 5 4 6 15 7 10 12 13 10 9 10 19 16 14 12 15 14 11 8 11 15 15 12 16 16 17 18 17 18 17 19 16 19 21 16 16 19 22 25 23 22 19
5 6 2 3 4 6 1 2 10 11 9 17 19 15 13 12 9 9 9 14 16 13 17 14 11 13 13 14 17 17 16 16 18 19 20 18 20 21 21 23 22 19 17 19 24 20 23 17 16
7 9 6 7 3 9 6 4 7 5 13 16 19 17 13 10 9 11 13 17 18 17 16 17 15 14 15 18 18 16 15 16 18 17 19 19 19 19 22 20 23 20 19 21 18 19 21 20 12
5 4 9 6 3 1 4 6 6 2 8 11 13 15 15 12 12 12 14 18 17 21 17 19 17 15 17 16 17 17 18 14 14 15 17 19 19 21 25 20 17 19 21 24 28 24 22 23 25
11 6 3 2 5 5 4 4 6 3 9 10 13 17 14 10 12 10 13 20 15 23 16 22 20 18 15 15 16 16 16 16 15 15 15 17 20 21 22 22 21 24 29 32 30 29 27 27 22
1 3 5 4 5 3 3 6 7 11 13 18 17 17 17 15 14 11 14 24 20 18 14 26 22 21 18 16 15 15 15 17 18 16 16 17 18 19 20 21 22 22 24 27 32 33 28 25 24
2 8 7 4 4 2 4 7 6 8 9 16 18 17 16 16 14 11 17 23 21 19 15 27 23 23 22 20 17 15 14 15 17 17 16 17 17 16 17 19 21 21 19 21 25 27 29 29 29
Wind_Direction
179 105 81 60 47 65 350 11 149 157 60 186 183 116 133 93 126 206 130 77 71 184 218 222 216 205 213 239 276 291 290 281 266 270 273 266 264 265 257 260 251 246 252 250 247 252 255 251 241
161 103 49 74 95 95 276 212 157 176 193 105 118 121 67 91 94 113 145 64 33 62 204 220 217 223 256 273 283 284 284 275 249 253 254 260 263 265 263 260 256 245 242 241 242 241 246 246 235
152 119 85 112 128 185 186 218 176 192 154 129 122 81 104 124 73 116 97 343 343 313 227 214 220 244 263 267 279 288 277 282 250 243 240 255 264 277 272 263 256 249 239 237 236 236 233 237 233
140 56 12 104 218 246 174 189 173 148 326 200 121 77 53 26 93 138 353 341 309 269 262 234 245 264 262 277 284 287 276 260 247 243 242 253 260 271 278 273 252 248 239 230 230 230 227 230 231
178 89 52 249 228 173 224 198 152 163 174 163 122 105 103 85 124 124 22 304 282 290 208 121 312 284 287 288 274 270 265 256 246 245 243 254 262 269 274 277 251 243 241 229 225 223 223 224 228
26 91 46 259 224 183 230 206 128 147 156 147 91 115 164 178 168 185 56 63 86 95 56 317 120 360 309 298 284 270 263 253 254 253 247 252 257 266 272 267 249 241 242 224 221 218 218 222 222
150 93 234 248 159 151 215 194 132 125 110 92 137 114 169 182 127 91 77 73 67 61 68 30 343 337 328 308 291 275 282 258 253 254 252 254 259 268 265 259 247 243 234 217 215 216 216 219 217
125 109 317 15 146 205 224 175 133 131 149 131 114 161 166 172 101 85 64 58 58 37 14 357 344 330 326 322 308 290 262 249 266 265 262 263 260 254 258 255 244 241 220 209 209 213 211 216 212
102 186 259 154 141 208 190 156 165 150 126 47 78 128 125 113 84 63 52 44 31 20 4 348 327 334 333 326 305 292 290 292 287 273 258 243 241 243 241 239 237 233 213 207 206 210 208 212 210
122 111 180 198 165 180 189 160 157 133 83 73 74 74 100 90 77 67 56 31 16 4 354 344 344 338 341 347 331 310 304 325 322 281 263 235 240 235 224 222 231 227 210 205 209 210 207 207 207
265 191 218 171 160 152 140 153 172 122 88 155 157 139 116 91 76 70 54 27 2 345 359 355 343 340 352 355 358 350 344 329 327 294 247 238 225 217 215 227 227 208 203 204 206 206 202 205 190
221 195 160 184 77 124 155 151 93 113 167 160 150 141 121 90 83 80 48 17 357 20 20 359 352 355 355 360 4 3 350 334 335 208 129 131 157 192 216 231 216 214 207 203 200 194 194 188 171
106 141 116 129 108 117 103 122 139 139 153 158 115 110 109 105 105 84 45 9 20 21 11 4 7 9 10 10 26 22 9 344 8 112 112 114 135 251 244 233 221 219 209 202 193 184 179 170 162
150 137 151 151 147 159 130 181 107 228 162 145 129 122 123 119 119 92 44 21 31 19 17 17 18 22 23 33 29 16 4 18 30 78 134 171 224 302 276 239 219 218 205 188 176 162 152 146 148
155 123 159 185 171 178 127 195 204 174 171 153 147 133 122 126 116 115 76 60 39 27 20 21 4 21 24 30 32 23 29 50 62 66 106 130 286 291 318 267 223 205 187 169 158 144 136 130 129
164 89 164 256 151 183 114 257 221 183 166 157 155 142 130 148 123 118 103 95 56 37 33 28 28 27 27 35 36 38 53 69 71 73 65 51 348 311 301 175 144 137 160 146 139 137 122 121 122
345 225 230 291 191 142 144 247 231 180 168 160 160 151 145 142 124 108 116 114 66 40 36 33 36 52 40 39 52 52 59 69 73 78 66 22 60 83 114 131 129 148 148 138 137 133 134 124 125
251 277 256 219 216 157 193 231 194 201 170 168 163 156 150 153 164 129 119 125 91 54 44 44 46 59 55 57 64 72 74 71 67 69 81 81 84 66 88 137 125 143 144 138 136 135 139 130 130
229 247 263 269 229 148 213 216 197 201 189 160 161 154 159 162 174 151 124 123 105 83 60 51 63 74 54 47 55 65 63 62 68 70 75 85 87 131 140 126 131 121 136 139 133 131 129 126 130
246 258 271 307 227 158 208 241 195 193 204 173 163 166 162 158 178 151 141 123 124 90 92 61 72 78 62 53 44 72 70 64 72 74 89 97 119 130 133 144 141 136 121 123 130 131 132 134 137
256 243 261 224 99 317 135 293 182 214 105 150 170 160 155 166 177 145 151 140 134 103 89 80 104 80 73 64 79 97 96 82 73 77 69 99 100 123 118 135 133 141 133 124 131 130 126 115 139
247 235 251 215 146 209 154 255 290 199 171 164 170 170 171 170 170 146 158 158 152 141 103 90 93 91 73 73 71 88 91 82 67 80 79 94 127 153 141 157 149 151 146 138 146 147 150 140 154
231 222 232 184 169 155 231 94 265 130 184 175 185 182 177 179 169 156 166 165 172 154 130 98 109 97 64 68 110 88 95 90 85 85 86 104 127 159 166 166 163 158 158 162 162 163 157 150 140
209 190 37 57 91 9 239 169 263 188 201 173 191 179 176 177 176 158 169 169 180 159 153 123 102 77 73 77 96 114 102 97 84 87 88 93 92 113 105 145 163 165 170 166 166 165 161 156 153
100 77 291 331 353 228 241 120 247 213 192 180 180 179 176 175 164 154 168 178 186 179 172 163 133 108 100 92 92 100 104 101 88 82 84 87 89 96 102 109 133 143 145 157 161 167 173 158 161
178 153 161 208 205 264 26 269 267 286 198 178 178 169 164 168 162 161 177 181 191 189 183 176 155 132 124 114 106 106 100 100 101 93 90 87 87 99 106 103 111 109 135 143 165 165 178 192 192
207 161 190 160 198 105 246 291 341 228 109 136 153 159 173 171 168 171 178 187 184 193 190 175 161 145 138 136 127 119 114 109 106 112 103 86 93 97 109 125 121 114 116 123 128 136 140 150 147
178 175 109 18 194 247 273 242 228 235 160 149 163 177 174 170 170 173 174 189 185 190 187 172 163 149 144 139 137 129 120 118 115 116 119 97 94 105 108 110 115 107 105 116 121 124 132 133 137
98 84 71 113 141 190 247 257 214 197 173 172 181 184 174 175 176 174 175 188 183 182 171 174 169 155 153 143 139 137 134 133 128 119 122 121 106 105 117 108 119 112 108 108 109 111 123 122 121
130 156 122 114 301 305 212 266 250 220 163 172 180 181 181 176 173 173 173 183 181 183 162 174 175 167 166 158 151 146 142 145 139 134 130 131 126 118 112 129 124 119 119 116 116 113 111 113 111